When you browse on this site, cookies collect data to enhance your experience and personalize the content and advertising you see.
Visit our Privacy Policy to learn more. By continuing to use the site, you agree to this use of cookies and data.
  • In Hungary
  • List of Countries
  • For 7 days
  • Water Temperature
  • Weather Map
  • News
  • Weather Widgets
  • user-avatar
    Login

    Hourly Weather Inozemcevo

    Today, 22 October, Tuesday

    Time Temperature Precipitation Wind Pressure Humidity
    00:00 +9°C° 0 mm 3 mps 726 mmHg 83%
    01:00 +9°C° 0 mm 2 mps 726 mmHg 85%
    02:00 +8°C° 0 mm 2 mps 725 mmHg 86%
    03:00 +8°C° 0 mm 2 mps 726 mmHg 89%
    04:00 +8°C° 0 mm 2 mps 726 mmHg 90%
    05:00 +8°C° 0 mm 2 mps 726 mmHg 91%
    06:00 +8°C° 0 mm 2 mps 726 mmHg 91%
    07:00 +9°C° 0 mm 2 mps 726 mmHg 85%
    08:00 +10°C° 0 mm 2 mps 726 mmHg 78%
    09:00 +12°C° 0 mm 3 mps 726 mmHg 69%
    10:00 +14°C° 0 mm 3 mps 726 mmHg 63%
    11:00 +15°C° 0 mm 4 mps 726 mmHg 57%
    12:00 +18°C° 0 mm 4 mps 726 mmHg 52%
    13:00 +18°C° 0 mm 4 mps 726 mmHg 51%
    14:00 +18°C° 0 mm 4 mps 726 mmHg 50%
    15:00 +18°C° 0 mm 4 mps 725 mmHg 49%
    16:00 +15°C° 0 mm 4 mps 726 mmHg 53%
    17:00 +14°C° 0 mm 3 mps 726 mmHg 57%
    18:00 +12°C° 0 mm 3 mps 726 mmHg 62%
    19:00 +13°C° 0 mm 2 mps 726 mmHg 64%
    20:00 +12°C° 0 mm 2 mps 726 mmHg 67%
    21:00 +12°C° 0 mm 2 mps 726 mmHg 69%
    22:00 +10°C° 0 mm 2 mps 726 mmHg 71%
    23:00 +10°C° 0 mm 2 mps 725 mmHg 73%

    Tomorrow, 23 October, Wednesday

    Time Temperature Precipitation Wind Pressure Humidity
    00:00 +11°C° 0 mm 1 mps 725 mmHg 75%
    01:00 +10°C° 0 mm 1 mps 725 mmHg 76%
    02:00 +10°C° 0 mm 1 mps 725 mmHg 77%
    03:00 +10°C° 0 mm 1 mps 725 mmHg 79%
    04:00 +10°C° 0 mm 1 mps 725 mmHg 79%
    05:00 +10°C° 0 mm 1 mps 725 mmHg 80%
    06:00 +9°C° 0 mm 0 mps 725 mmHg 81%
    07:00 +11°C° 0 mm 1 mps 726 mmHg 75%
    08:00 +12°C° 0 mm 1 mps 726 mmHg 69%
    09:00 +14°C° 0 mm 1 mps 726 mmHg 64%
    10:00 +15°C° 0 mm 2 mps 726 mmHg 60%
    11:00 +16°C° 0 mm 2 mps 726 mmHg 56%
    12:00 +17°C° 0 mm 3 mps 726 mmHg 52%
    13:00 +17°C° 0.1 mm 3 mps 725 mmHg 52%
    14:00 +17°C° 0.1 mm 3 mps 725 mmHg 52%
    15:00 +17°C° 0.1 mm 3 mps 725 mmHg 52%
    16:00 +16°C° 0 mm 2 mps 725 mmHg 57%
    17:00 +15°C° 0 mm 2 mps 725 mmHg 62%
    18:00 +13°C° 0 mm 2 mps 725 mmHg 67%
    19:00 +13°C° 0 mm 2 mps 725 mmHg 69%
    20:00 +12°C° 0 mm 2 mps 726 mmHg 72%
    21:00 +11°C° 0 mm 1 mps 726 mmHg 74%
    22:00 +11°C° 0 mm 1 mps 725 mmHg 75%
    23:00 +11°C° 0 mm 1 mps 725 mmHg 75%

    Day after tomorrow, 24 October, Thursday

    Time Temperature Precipitation Wind Pressure Humidity
    00:00 +11°C° 0 mm 1 mps 725 mmHg 76%
    01:00 +10°C° 0 mm 1 mps 725 mmHg 76%
    02:00 +10°C° 0 mm 1 mps 725 mmHg 77%
    03:00 +10°C° 0 mm 1 mps 725 mmHg 77%
    04:00 +10°C° 0 mm 1 mps 725 mmHg 76%
    05:00 +10°C° 0 mm 1 mps 725 mmHg 76%
    06:00 +9°C° 0 mm 1 mps 725 mmHg 75%
    07:00 +11°C° 0 mm 1 mps 725 mmHg 70%
    08:00 +12°C° 0 mm 1 mps 725 mmHg 64%
    09:00 +14°C° 0 mm 2 mps 725 mmHg 59%
    10:00 +15°C° 0 mm 2 mps 725 mmHg 55%
    11:00 +17°C° 0 mm 2 mps 725 mmHg 51%
    12:00 +18°C° 0 mm 3 mps 725 mmHg 47%
    13:00 +18°C° 0 mm 3 mps 725 mmHg 47%
    14:00 +18°C° 0 mm 3 mps 725 mmHg 46%
    15:00 +18°C° 0 mm 3 mps 724 mmHg 46%
    16:00 +17°C° 0 mm 3 mps 724 mmHg 51%
    17:00 +15°C° 0 mm 2 mps 724 mmHg 57%
    18:00 +14°C° 0 mm 2 mps 724 mmHg 62%
    19:00 +13°C° 0 mm 2 mps 724 mmHg 64%
    20:00 +13°C° 0 mm 2 mps 724 mmHg 65%
    21:00 +12°C° 0 mm 1 mps 724 mmHg 66%
    22:00 +12°C° 0 mm 1 mps 724 mmHg 66%
    23:00 +12°C° 0 mm 1 mps 724 mmHg 66%

    25 October, Friday

    Time Temperature Precipitation Wind Pressure Humidity
    00:00 +12°C° 0 mm 1 mps 723 mmHg 67%
    01:00 +12°C° 0 mm 1 mps 723 mmHg 67%
    02:00 +11°C° 0 mm 1 mps 723 mmHg 67%
    03:00 +11°C° 0 mm 1 mps 723 mmHg 68%
    04:00 +11°C° 0 mm 1 mps 723 mmHg 69%
    05:00 +10°C° 0 mm 0 mps 723 mmHg 70%
    06:00 +9°C° 0 mm 0 mps 723 mmHg 71%
    07:00 +11°C° 0 mm 0 mps 723 mmHg 66%
    08:00 +12°C° 0 mm 0 mps 723 mmHg 60%
    09:00 +14°C° 0 mm 0 mps 723 mmHg 55%
    10:00 +16°C° 0 mm 1 mps 723 mmHg 51%
    11:00 +18°C° 0 mm 1 mps 723 mmHg 47%
    12:00 +18°C° 0 mm 2 mps 723 mmHg 44%
    13:00 +19°C° 0 mm 2 mps 723 mmHg 42%
    14:00 +19°C° 0 mm 2 mps 723 mmHg 41%
    15:00 +20°C° 0 mm 2 mps 723 mmHg 39%
    16:00 +18°C° 0 mm 2 mps 723 mmHg 46%
    17:00 +16°C° 0 mm 2 mps 723 mmHg 53%
    18:00 +14°C° 0 mm 2 mps 723 mmHg 59%
    19:00 +14°C° 0 mm 1 mps 723 mmHg 61%
    20:00 +13°C° 0 mm 1 mps 723 mmHg 63%
    21:00 +13°C° 0 mm 1 mps 723 mmHg 64%
    22:00 +13°C° 0 mm 1 mps 723 mmHg 63%
    23:00 +12°C° 0 mm 1 mps 723 mmHg 63%

    26 October, Saturday

    Time Temperature Precipitation Wind Pressure Humidity
    00:00 +12°C° 0 mm 1 mps 723 mmHg 62%
    01:00 +12°C° 0 mm 1 mps 723 mmHg 63%
    02:00 +12°C° 0 mm 1 mps 723 mmHg 63%
    03:00 +10°C° 0 mm 0 mps 723 mmHg 64%
    04:00 +10°C° 0 mm 0 mps 723 mmHg 64%
    05:00 +10°C° 0 mm 0 mps 723 mmHg 64%
    06:00 +10°C° 0 mm 0 mps 723 mmHg 65%
    07:00 +11°C° 0 mm 0 mps 723 mmHg 60%
    08:00 +13°C° 0 mm 0 mps 723 mmHg 55%
    09:00 +14°C° 0 mm 0 mps 723 mmHg 50%
    10:00 +16°C° 0 mm 1 mps 723 mmHg 47%
    11:00 +18°C° 0 mm 1 mps 723 mmHg 44%
    12:00 +19°C° 0 mm 2 mps 723 mmHg 41%
    13:00 +19°C° 0 mm 2 mps 723 mmHg 41%
    14:00 +19°C° 0 mm 2 mps 723 mmHg 41%
    15:00 +19°C° 0 mm 2 mps 723 mmHg 42%
    16:00 +18°C° 0 mm 2 mps 723 mmHg 47%
    17:00 +17°C° 0 mm 2 mps 723 mmHg 53%
    18:00 +16°C° 0 mm 2 mps 723 mmHg 59%
    19:00 +15°C° 0.1 mm 2 mps 723 mmHg 63%
    20:00 +15°C° 0.1 mm 1 mps 723 mmHg 67%
    21:00 +13°C° 0.1 mm 0 mps 723 mmHg 72%
    22:00 +13°C° 0 mm 0 mps 723 mmHg 75%
    23:00 +12°C° 0 mm 0 mps 723 mmHg 78%

    27 October, Sunday

    Time Temperature Precipitation Wind Pressure Humidity
    00:00 +12°C° 0 mm 0 mps 723 mmHg 81%
    01:00 +11°C° 0 mm 0 mps 722 mmHg 84%
    02:00 +11°C° 0 mm 0 mps 722 mmHg 87%
    03:00 +10°C° 0 mm 0 mps 722 mmHg 89%
    04:00 +11°C° 0 mm 1 mps 722 mmHg 91%
    05:00 +11°C° 0 mm 1 mps 722 mmHg 93%
    06:00 +10°C° 0 mm 1 mps 722 mmHg 94%
    07:00 +11°C° 0 mm 1 mps 722 mmHg 91%
    08:00 +12°C° 0 mm 1 mps 722 mmHg 88%
    09:00 +13°C° 0 mm 1 mps 722 mmHg 85%
    10:00 +14°C° 0 mm 2 mps 722 mmHg 81%
    11:00 +15°C° 0 mm 2 mps 722 mmHg 76%
    12:00 +15°C° 0 mm 2 mps 722 mmHg 72%
    13:00 +16°C° 0 mm 2 mps 722 mmHg 70%
    14:00 +16°C° 0 mm 2 mps 722 mmHg 68%
    15:00 +16°C° 0 mm 2 mps 721 mmHg 65%
    16:00 +15°C° 0 mm 2 mps 721 mmHg 69%
    17:00 +15°C° 0 mm 2 mps 721 mmHg 72%
    18:00 +14°C° 0 mm 1 mps 721 mmHg 75%
    19:00 +13°C° 0 mm 1 mps 721 mmHg 77%
    20:00 +13°C° 0 mm 1 mps 721 mmHg 79%
    21:00 +12°C° 0 mm 1 mps 721 mmHg 81%
    22:00 +12°C° 0 mm 1 mps 721 mmHg 82%
    23:00 +12°C° 0 mm 1 mps 721 mmHg 83%

    28 October, Monday

    Time Temperature Precipitation Wind Pressure Humidity
    00:00 +11°C° 0 mm 1 mps 721 mmHg 84%
    01:00 +11°C° 0 mm 1 mps 721 mmHg 84%
    02:00 +11°C° 0 mm 1 mps 721 mmHg 83%
    03:00 +11°C° 0 mm 1 mps 720 mmHg 83%
    04:00 +11°C° 0 mm 1 mps 720 mmHg 82%
    05:00 +11°C° 0 mm 1 mps 720 mmHg 81%
    06:00 +10°C° 0 mm 1 mps 720 mmHg 80%
    07:00 +12°C° 0 mm 1 mps 721 mmHg 72%
    08:00 +14°C° 0 mm 1 mps 721 mmHg 65%
    09:00 +15°C° 0 mm 1 mps 721 mmHg 58%
    10:00 +16°C° 0 mm 2 mps 721 mmHg 54%
    11:00 +17°C° 0 mm 2 mps 721 mmHg 51%
    12:00 +18°C° 0 mm 2 mps 721 mmHg 47%
    13:00 +19°C° 0 mm 2 mps 721 mmHg 47%
    14:00 +19°C° 0 mm 2 mps 721 mmHg 46%
    15:00 +19°C° 0 mm 3 mps 721 mmHg 46%
    16:00 +18°C° 0 mm 2 mps 721 mmHg 53%
    17:00 +16°C° 0 mm 2 mps 721 mmHg 59%
    18:00 +15°C° 0 mm 1 mps 721 mmHg 65%
    19:00 +15°C° 0 mm 1 mps 721 mmHg 66%
    20:00 +15°C° 0 mm 1 mps 721 mmHg 66%
    21:00 +15°C° 0 mm 1 mps 722 mmHg 67%
    22:00 +14°C° 0 mm 1 mps 722 mmHg 68%
    23:00 +14°C° 0 mm 1 mps 721 mmHg 68%
    Show more